When you browse on this site, cookies collect data to enhance your experience and personalize the content and advertising you see.
Visit our Privacy Policy to learn more. By continuing to use the site, you agree to this use of cookies and data.

Stündliche Wetter Juàzeirinho

Heute, 26 September, Samstag

Zeit Temperatur Niederschläge Wind Luftdruck Luftfeuchtigkeit
00:00 +25°C° 0 mm 4 m/S 741 mmHg 69%
01:00 +24°C° 0 mm 3 m/S 741 mmHg 72%
02:00 +22°C° 0 mm 3 m/S 741 mmHg 75%
03:00 +23°C° 0 mm 2 m/S 741 mmHg 77%
04:00 +23°C° 0 mm 2 m/S 741 mmHg 77%
05:00 +23°C° 0 mm 2 m/S 741 mmHg 77%
06:00 +23°C° 0 mm 2 m/S 742 mmHg 76%
07:00 +26°C° 0 mm 2 m/S 742 mmHg 65%
08:00 +28°C° 0 mm 3 m/S 742 mmHg 54%
09:00 +31°C° 0 mm 3 m/S 742 mmHg 43%
10:00 +34°C° 0 mm 3 m/S 741 mmHg 38%
11:00 +36°C° 0 mm 2 m/S 740 mmHg 33%
12:00 +38°C° 0 mm 2 m/S 739 mmHg 27%
13:00 +38°C° 0 mm 2 m/S 739 mmHg 25%
14:00 +39°C° 0 mm 3 m/S 738 mmHg 23%
15:00 +40°C° 0 mm 3 m/S 737 mmHg 22%
16:00 +38°C° 0 mm 3 m/S 737 mmHg 25%
17:00 +36°C° 0 mm 3 m/S 737 mmHg 28%
18:00 +34°C° 0 mm 3 m/S 738 mmHg 31%
19:00 +33°C° 0 mm 4 m/S 738 mmHg 39%
20:00 +30°C° 0 mm 5 m/S 739 mmHg 46%
21:00 +29°C° 0 mm 6 m/S 740 mmHg 54%
22:00 +28°C° 0 mm 5 m/S 740 mmHg 59%
23:00 +26°C° 0 mm 4 m/S 740 mmHg 65%

Morgen, 27 September, Sonntag

Zeit Temperatur Niederschläge Wind Luftdruck Luftfeuchtigkeit
00:00 +25°C° 0 mm 3 m/S 740 mmHg 70%
01:00 +24°C° 0 mm 2 m/S 740 mmHg 73%
02:00 +24°C° 0 mm 2 m/S 739 mmHg 76%
03:00 +23°C° 0 mm 2 m/S 739 mmHg 79%
04:00 +23°C° 0 mm 2 m/S 739 mmHg 78%
05:00 +23°C° 0 mm 2 m/S 740 mmHg 77%
06:00 +23°C° 0 mm 2 m/S 740 mmHg 76%
07:00 +26°C° 0 mm 3 m/S 741 mmHg 65%
08:00 +28°C° 0 mm 3 m/S 741 mmHg 53%
09:00 +31°C° 0 mm 3 m/S 741 mmHg 42%
10:00 +34°C° 0 mm 3 m/S 740 mmHg 36%
11:00 +37°C° 0 mm 3 m/S 740 mmHg 30%
12:00 +39°C° 0 mm 3 m/S 739 mmHg 24%
13:00 +40°C° 0 mm 3 m/S 738 mmHg 21%
14:00 +40°C° 0 mm 3 m/S 737 mmHg 19%
15:00 +42°C° 0 mm 3 m/S 736 mmHg 17%
16:00 +39°C° 0 mm 3 m/S 736 mmHg 18%
17:00 +37°C° 0 mm 3 m/S 737 mmHg 20%
18:00 +35°C° 0 mm 3 m/S 737 mmHg 22%
19:00 +34°C° 0 mm 3 m/S 738 mmHg 34%
20:00 +31°C° 0 mm 3 m/S 739 mmHg 45%
21:00 +29°C° 0 mm 4 m/S 739 mmHg 57%
22:00 +28°C° 0 mm 4 m/S 740 mmHg 64%
23:00 +27°C° 0 mm 3 m/S 740 mmHg 70%

übermorgen, 28 September, Montag

Zeit Temperatur Niederschläge Wind Luftdruck Luftfeuchtigkeit
00:00 +26°C° 0 mm 3 m/S 740 mmHg 77%
01:00 +25°C° 0 mm 3 m/S 739 mmHg 80%
02:00 +24°C° 0 mm 2 m/S 739 mmHg 82%
03:00 +24°C° 0 mm 2 m/S 739 mmHg 85%
04:00 +24°C° 0 mm 2 m/S 739 mmHg 83%
05:00 +25°C° 0 mm 2 m/S 739 mmHg 81%
06:00 +25°C° 0 mm 2 m/S 740 mmHg 79%
07:00 +27°C° 0 mm 2 m/S 740 mmHg 68%
08:00 +30°C° 0 mm 3 m/S 740 mmHg 57%
09:00 +33°C° 0 mm 4 m/S 740 mmHg 45%
10:00 +35°C° 0 mm 4 m/S 740 mmHg 38%
11:00 +38°C° 0 mm 3 m/S 739 mmHg 30%
12:00 +40°C° 0 mm 3 m/S 738 mmHg 22%
13:00 +42°C° 0 mm 3 m/S 737 mmHg 20%
14:00 +42°C° 0 mm 4 m/S 737 mmHg 18%
15:00 +43°C° 0 mm 4 m/S 736 mmHg 16%
16:00 +41°C° 0 mm 4 m/S 736 mmHg 18%
17:00 +38°C° 0 mm 4 m/S 736 mmHg 20%
18:00 +36°C° 0 mm 3 m/S 737 mmHg 22%
19:00 +34°C° 0 mm 4 m/S 738 mmHg 34%
20:00 +32°C° 0 mm 4 m/S 738 mmHg 46%
21:00 +29°C° 0 mm 5 m/S 739 mmHg 57%
22:00 +28°C° 0 mm 4 m/S 739 mmHg 63%
23:00 +27°C° 0 mm 4 m/S 739 mmHg 69%

29 September, Dienstag

Zeit Temperatur Niederschläge Wind Luftdruck Luftfeuchtigkeit
00:00 +25°C° 0 mm 4 m/S 740 mmHg 75%
01:00 +25°C° 0 mm 3 m/S 739 mmHg 77%
02:00 +24°C° 0 mm 3 m/S 739 mmHg 78%
03:00 +23°C° 0 mm 2 m/S 739 mmHg 80%
04:00 +23°C° 0 mm 2 m/S 739 mmHg 80%
05:00 +23°C° 0 mm 2 m/S 740 mmHg 80%
06:00 +23°C° 0 mm 2 m/S 740 mmHg 81%
07:00 +26°C° 0 mm 3 m/S 740 mmHg 70%
08:00 +28°C° 0 mm 4 m/S 741 mmHg 58%
09:00 +32°C° 0 mm 5 m/S 741 mmHg 47%
10:00 +35°C° 0 mm 5 m/S 740 mmHg 39%
11:00 +37°C° 0 mm 5 m/S 739 mmHg 30%
12:00 +41°C° 0 mm 5 m/S 739 mmHg 22%
13:00 +41°C° 0 mm 5 m/S 738 mmHg 20%
14:00 +42°C° 0 mm 5 m/S 737 mmHg 18%
15:00 +42°C° 0 mm 5 m/S 736 mmHg 16%
16:00 +41°C° 0 mm 5 m/S 737 mmHg 19%
17:00 +39°C° 0 mm 6 m/S 737 mmHg 23%
18:00 +36°C° 0 mm 6 m/S 738 mmHg 26%
19:00 +34°C° 0 mm 6 m/S 738 mmHg 37%
20:00 +30°C° 0 mm 6 m/S 739 mmHg 47%
21:00 +28°C° 0 mm 6 m/S 740 mmHg 57%
22:00 +27°C° 0 mm 5 m/S 740 mmHg 64%
23:00 +26°C° 0 mm 5 m/S 740 mmHg 71%

30 September, Mittwoch

Zeit Temperatur Niederschläge Wind Luftdruck Luftfeuchtigkeit
00:00 +23°C° 0 mm 4 m/S 740 mmHg 78%
01:00 +22°C° 0 mm 4 m/S 740 mmHg 81%
02:00 +22°C° 0 mm 3 m/S 740 mmHg 84%
03:00 +21°C° 0 mm 2 m/S 739 mmHg 87%
04:00 +21°C° 0 mm 2 m/S 740 mmHg 86%
05:00 +21°C° 0 mm 2 m/S 740 mmHg 85%
06:00 +22°C° 0 mm 1 m/S 741 mmHg 84%
07:00 +25°C° 0 mm 3 m/S 741 mmHg 73%
08:00 +27°C° 0 mm 4 m/S 741 mmHg 61%
09:00 +30°C° 0 mm 5 m/S 742 mmHg 49%
10:00 +34°C° 0 mm 5 m/S 741 mmHg 40%
11:00 +38°C° 0 mm 6 m/S 740 mmHg 30%
12:00 +40°C° 0 mm 6 m/S 739 mmHg 21%
13:00 +41°C° 0 mm 6 m/S 738 mmHg 20%
14:00 +41°C° 0 mm 6 m/S 738 mmHg 19%
15:00 +43°C° 0 mm 7 m/S 737 mmHg 18%
16:00 +40°C° 0 mm 6 m/S 737 mmHg 21%
17:00 +38°C° 0 mm 6 m/S 738 mmHg 24%
18:00 +35°C° 0 mm 5 m/S 738 mmHg 27%
19:00 +33°C° 0 mm 5 m/S 739 mmHg 35%
20:00 +30°C° 0 mm 6 m/S 739 mmHg 43%
21:00 +28°C° 0 mm 6 m/S 740 mmHg 52%
22:00 +26°C° 0 mm 5 m/S 740 mmHg 59%
23:00 +25°C° 0 mm 4 m/S 740 mmHg 66%

1 Oktober, Donnerstag

Zeit Temperatur Niederschläge Wind Luftdruck Luftfeuchtigkeit
00:00 +22°C° 0 mm 3 m/S 740 mmHg 74%
01:00 +21°C° 0 mm 3 m/S 740 mmHg 77%
02:00 +21°C° 0 mm 2 m/S 739 mmHg 81%
03:00 +20°C° 0 mm 2 m/S 739 mmHg 84%
04:00 +20°C° 0 mm 2 m/S 740 mmHg 82%
05:00 +22°C° 0 mm 1 m/S 740 mmHg 80%
06:00 +22°C° 0 mm 1 m/S 741 mmHg 78%
07:00 +25°C° 0 mm 2 m/S 741 mmHg 65%
08:00 +28°C° 0 mm 4 m/S 741 mmHg 52%
09:00 +32°C° 0 mm 5 m/S 742 mmHg 39%
10:00 +35°C° 0 mm 5 m/S 741 mmHg 32%
11:00 +38°C° 0 mm 6 m/S 740 mmHg 25%
12:00 +40°C° 0 mm 6 m/S 739 mmHg 18%
13:00 +40°C° 0 mm 6 m/S 738 mmHg 17%
14:00 +41°C° 0 mm 6 m/S 737 mmHg 16%
15:00 +41°C° 0 mm 6 m/S 736 mmHg 15%
16:00 +39°C° 0 mm 5 m/S 737 mmHg 19%
17:00 +36°C° 0 mm 5 m/S 737 mmHg 23%
18:00 +34°C° 0 mm 5 m/S 737 mmHg 27%
19:00 +32°C° 0 mm 5 m/S 738 mmHg 34%
20:00 +30°C° 0 mm 5 m/S 739 mmHg 41%
21:00 +28°C° 0 mm 5 m/S 739 mmHg 47%
22:00 +26°C° 0 mm 4 m/S 739 mmHg 55%
23:00 +25°C° 0 mm 3 m/S 739 mmHg 63%
Mehr zeigen